Outer Banks, North Carolina, United States
Lat: 35.98N, Lon: 75.65W
Wx Zone: NCZ103
Local Info
Past Weather Observations for Today

NOTE: This archive is for the closest National Weather Service station to Outer Banks. Information may differ from the station used for current weather conditions.

Click here for Long-term Archive

Time Weather Temperature Dewpoint Humidity Pressure Winds Precip Visibility
17:55
Overcast
Fog
54°F / 12°C 54°F / 12°C 100% 29.95 in
(1014 mb)
NE 3.5 mph
(NE 6 kph)
- M1/4SM
17:35
Overcast
Fog
54°F / 12°C 54°F / 12°C 100% 29.95 in
(1014 mb)
NE 5.8 mph
(NE 9 kph)
- 1/4SM
17:15
Overcast
Fog
54°F / 12°C 54°F / 12°C 100% 29.95 in
(1014 mb)
NE 4.6 mph
(NE 7 kph)
- 1/2SM
16:55
Overcast
Fog And Mist
54°F / 12°C 54°F / 12°C 100% 29.95 in
(1014 mb)
N 4.6 mph
(N 7 kph)
- 3/4SM
16:35
Overcast
Fog And Mist
54°F / 12°C 54°F / 12°C 100% 29.98 in
(1015 mb)
N 4.6 mph
(N 7 kph)
- 3/4SM
16:15
Overcast
Fog And Mist
55°F / 13°C 55°F / 13°C 100% 29.98 in
(1015 mb)
N 4.6 mph
(N 7 kph)
- 3/4SM
15:55
Overcast
Fog And Mist
55°F / 13°C 55°F / 13°C 100% 29.95 in
(1014 mb)
N 4.6 mph
(N 7 kph)
- 1SM
15:35
Overcast
Fog And Mist
55°F / 13°C 55°F / 13°C 100% 29.95 in
(1014 mb)
N 5.8 mph
(N 9 kph)
- 1 1/4SM
15:15
Overcast
Drizzle
55°F / 13°C 55°F / 13°C 100% 29.95 in
(1014 mb)
NNE 4.6 mph
(NNE 7 kph)
- 1 3/4SM
14:55
Overcast
Fog And Mist
55°F / 13°C 55°F / 13°C 100% 29.95 in
(1014 mb)
NE 5.8 mph
(NE 9 kph)
- 2 1/2SM
14:35
Overcast
Fog And Mist
55°F / 13°C 55°F / 13°C 100% 29.95 in
(1014 mb)
NE 5.8 mph
(NE 9 kph)
- 2 1/2SM
14:15
Overcast
Drizzle
57°F / 14°C 57°F / 14°C 100% 29.95 in
(1014 mb)
NE 3.5 mph
(NE 6 kph)
- 1 1/4SM
13:35
Overcast
Light Rain
54°F / 12°C 54°F / 12°C 100% 29.95 in
(1014 mb)
NE 4.6 mph
(NE 7 kph)
0.18 in
(4.57 mm)
2 1/2SM
13:15
Overcast
Rain
54°F / 12°C 54°F / 12°C 100% 29.98 in
(1015 mb)
N 5.8 mph
(N 9 kph)
0.06 in
(1.52 mm)
1 1/2SM
12:55
Overcast
Heavy Rain
54°F / 12°C 54°F / 12°C 100% 29.98 in
(1015 mb)
NE 5.8 mph
(NE 9 kph)
0.50 in
(12.70 mm)
3/4SM
12:35
Overcast
Rain
54°F / 12°C 54°F / 12°C 100% 30.01 in
(1016 mb)
NNE 6.9 mph
(NNE 11 kph)
0.25 in
(6.35 mm)
1 1/2SM
12:15
Overcast
Heavy Rain
54°F / 12°C 54°F / 12°C 100% 30.01 in
(1016 mb)
NE 6.9 mph
(NE 11 kph)
0.12 in
(3.05 mm)
1SM
11:55
Overcast
Heavy Rain
54°F / 12°C 54°F / 12°C 100% 30.01 in
(1016 mb)
NE 11.5 mph
(NE 19 kph)
0.35 in
(8.89 mm)
1 1/4SM
11:35
Overcast
Rain
52°F / 11°C 52°F / 11°C 100% 30.04 in
(1017 mb)
NE 11.5 mph
(NE 19 kph)
0.21 in
(5.33 mm)
11:15
Overcast
Heavy Rain
52°F / 11°C 52°F / 11°C 100% 30.04 in
(1017 mb)
NE 10.4 mph
(NE 17 kph)
0.11 in
(2.79 mm)
1 1/2SM
10:55
Overcast
Rain
52°F / 11°C 52°F / 11°C 100% 30.06 in
(1018 mb)
N 9.2 mph
(N 15 kph)
0.23 in
(5.84 mm)
1 3/4SM
10:35
Overcast
Rain
52°F / 11°C 52°F / 11°C 100% 30.09 in
(1019 mb)
N 10.4 mph
(N 17 kph)
0.15 in
(3.81 mm)
1 3/4SM
10:15
Overcast
Rain
52°F / 11°C 52°F / 11°C 100% 30.09 in
(1019 mb)
N 4.6 mph
(N 7 kph)
0.06 in
(1.52 mm)
1 3/4SM
09:55
Overcast
Heavy Rain
52°F / 11°C 52°F / 11°C 100% 30.09 in
(1019 mb)
N 8.1 mph
(N 13 kph)
0.22 in
(5.59 mm)
1 1/4SM
09:35
Overcast
Heavy Rain
52°F / 11°C 52°F / 11°C 100% 30.09 in
(1019 mb)
N 8.1 mph
(N 13 kph)
0.14 in
(3.56 mm)
1 1/4SM
09:15
Overcast
Drizzle
52°F / 11°C 52°F / 11°C 100% 30.09 in
(1019 mb)
NE 6.9 mph
(NE 11 kph)
0.05 in
(1.27 mm)
1 1/4SM
08:55
Overcast
Rain
50°F / 10°C 50°F / 10°C 100% 30.09 in
(1019 mb)
NE 9.2 mph
(NE 15 kph)
0.08 in
(2.03 mm)
1 1/2SM
08:35
Overcast
Drizzle
50°F / 10°C 50°F / 10°C 100% 30.09 in
(1019 mb)
ENE 8.1 mph
(ENE 13 kph)
0.04 in
(1.02 mm)
1 3/4SM
08:15
Overcast
Light Rain
50°F / 10°C 50°F / 10°C 100% 30.09 in
(1019 mb)
ENE 10.4 mph
(ENE 17 kph)
0.02 in
(0.51 mm)
1 3/4SM
07:55
Overcast
Rain
50°F / 10°C 50°F / 10°C 100% 30.09 in
(1019 mb)
ENE 12.7 mph
(ENE 20 kph)
0.04 in
(1.02 mm)
2SM
07:35
Overcast
Light Rain
50°F / 10°C 48°F / 9°C 94% 30.12 in
(1020 mb)
NE 8.1 mph
(NE 13 kph)
0.01 in
(0.25 mm)
2 1/2SM
07:15
Overcast
Light Rain
50°F / 10°C 48°F / 9°C 94% 30.12 in
(1020 mb)
N/A 0.01 in
(0.25 mm)
3SM
06:55
Overcast
Light Rain
50°F / 10°C 48°F / 9°C 94% 30.12 in
(1020 mb)
NE 9.2 mph
(NE 15 kph)
0.09 in
(2.29 mm)
3SM
06:35
Overcast
Rain
50°F / 10°C 48°F / 9°C 94% 30.12 in
(1020 mb)
NE 8.1 mph
(NE 13 kph)
0.07 in
(1.78 mm)
2 1/2SM
06:15
Overcast
Rain
50°F / 10°C 48°F / 9°C 94% 30.12 in
(1020 mb)
ENE 9.2 mph
(ENE 15 kph)
0.03 in
(0.76 mm)
3SM
05:55
Overcast
Light Rain
48°F / 9°C 48°F / 9°C 100% 30.12 in
(1020 mb)
NE 10.4 mph
(NE 17 kph)
0.02 in
(0.51 mm)
4SM
05:35
Overcast
Light Rain
48°F / 9°C 46°F / 8°C 94% 30.12 in
(1020 mb)
NE 10.4 mph
(NE 17 kph)
- 5SM
05:15
Overcast
Light Rain
48°F / 9°C 46°F / 8°C 94% 30.12 in
(1020 mb)
NE 12.7 mph
(NE 20 kph)
- 5SM
04:55
Overcast
Light Rain
48°F / 9°C 46°F / 8°C 94% 30.12 in
(1020 mb)
NE 9.2 mph
(NE 15 kph)
0.01 in
(0.25 mm)
4SM
04:35
Overcast
48°F / 9°C 46°F / 8°C 94% 30.15 in
(1021 mb)
NE 8.1 mph
(NE 13 kph)
- 7SM
04:15
Overcast
48°F / 9°C 46°F / 8°C 94% 30.15 in
(1021 mb)
NE 8.1 mph
(NE 13 kph)
- 7SM
03:55
Overcast
Drizzle
48°F / 9°C 46°F / 8°C 94% 30.15 in
(1021 mb)
NE 12.7 mph
(NE 20 kph)
- 7SM
03:35
Overcast
Drizzle
48°F / 9°C 46°F / 8°C 94% 30.15 in
(1021 mb)
NE 10.4 mph
(NE 17 kph)
- 5SM
03:15
Overcast
Drizzle
48°F / 9°C 45°F / 7°C 87% 30.18 in
(1022 mb)
NE 8.1 mph
(NE 13 kph)
- 5SM
02:55
Overcast
Light Rain
48°F / 9°C 45°F / 7°C 87% 30.18 in
(1022 mb)
NE 9.2 mph
(NE 15 kph)
- 5SM
02:35
Overcast
Light Rain
48°F / 9°C 45°F / 7°C 87% 30.18 in
(1022 mb)
NE 8.1 mph
(NE 13 kph)
- 7SM
02:15
Overcast
48°F / 9°C 45°F / 7°C 87% 30.18 in
(1022 mb)
NE 9.2 mph
(NE 15 kph)
- 10SM
01:55
Overcast
48°F / 9°C 45°F / 7°C 87% 30.18 in
(1022 mb)
NE 10.4 mph
(NE 17 kph)
- 10SM
01:35
Overcast
48°F / 9°C 43°F / 6°C 82% 30.18 in
(1022 mb)
NE 9.2 mph
(NE 15 kph)
- 10SM
01:15
Overcast
48°F / 9°C 43°F / 6°C 82% 30.18 in
(1022 mb)
NE 9.2 mph
(NE 15 kph)
- 10SM
00:55
Overcast
48°F / 9°C 43°F / 6°C 82% 30.21 in
(1023 mb)
NE 9.2 mph
(NE 15 kph)
- 10SM
00:35
Overcast
48°F / 9°C 43°F / 6°C 82% 30.21 in
(1023 mb)
NE 9.2 mph
(NE 15 kph)
- 10SM
00:15
Overcast
48°F / 9°C 43°F / 6°C 82% 30.21 in
(1023 mb)
NE 8.1 mph
(NE 13 kph)
- 10SM
Time Weather Temperature Dewpoint Humidity Pressure Winds Precip Visibility


Weather for websites

WeatherForYou.com, LLC is not responsible for any damages or problems caused by this service. Current weather conditions are obtained from the closest station including government and personal stations which may have varying degrees of accuracy. Weather forecasts are derived from the NOAA NDFD. Like all things, this site belongs to Jesus Christ... He just trusts me to maintain it. If you have any questions or comments email webmaster@weatherforyou.com

Copyright © 2014, WeatherForYou.com LLC. All rights reserved.